Regional Weather Roundup
Issued by NWS Raleigh/Durham, NC

Home | Current Version | Previous Version | Text Only | Print | Product List | Glossary On
Versions: 1 2 3 4 5 6 7 8 9 10 11 12 13 14 15 16 17 18 19 20 21 22 23 24 25 26 27 28 29 30 31 32 33 34 35 36 37 38 39 40 41 42 43 44 45 46 47 48 49 50
000
ASUS42 KRAH 260510
RWRRAH
NORTH CAROLINA WEATHER ROUNDUP
NATIONAL WEATHER SERVICE RALEIGH NC
100 AM EDT MON SEP 26 2016

NOTE: "FAIR" INDICATES FEW OR NO CLOUDS BELOW 12,000 FEET WITH NO
SIGNIFICANT WEATHER AND/OR OBSTRUCTIONS TO VISIBILITY.

NCZ001-053-055-056-065-067-260600-
WESTERN NORTH CAROLINA

CITY           SKY/WX    TMP DP  RH WIND       PRES   REMARKS
ASHEVILLE      CLOUDY    70  65  84 CALM      30.17S
JEFFERSON      FOG       63  63  99 CALM      30.21F VSB 1/4
HICKORY        CLOUDY    71  69  93 NE5       30.14S
RUTHERFORDTON  CLOUDY    73  69  86 CALM      30.14S
MOUNT AIRY     CLOUDY    69  67  92 E3        30.17F FOG
BOONE          CLOUDY    64  64 100 CALM      30.22F FOG
$$

NCZ021-022-025-041-071-084-088-260600-
CENTRAL NORTH CAROLINA

CITY           SKY/WX    TMP DP  RH WIND       PRES   REMARKS
CHARLOTTE      CLOUDY    74  68  81 E9        30.13R
GREENSBORO     CLOUDY    69  67  93 SE3       30.14F
WINSTON-SALEM  CLOUDY    69  66  90 E6        30.15F
RALEIGH-DURHAM CLOUDY    69  61  75 SE5       30.15F
FORT BRAGG     CLOUDY    70  66  89 E5        30.12F
FAYETTEVILLE   MOCLDY    70  65  84 E3        30.13S
BURLINGTON     CLOUDY    68  67  96 E7        30.14F
LAURINBURG     CLOUDY    72  68  87 E6        30.13S
$$

NCZ011-015-027-028-043-044-047-080-103-260600-
NORTHEASTERN NORTH CAROLINA

CITY           SKY/WX    TMP DP  RH WIND       PRES   REMARKS
ROCKY MT-WILSO CLOUDY    67  62  84 E5        30.16S
GREENVILLE     CLOUDY    64  63  94 CALM      30.16F
WASHINGTON     CLEAR     63  60  91 NE3       30.16S
ELIZABETH CITY MOCLDY    66  58  75 E5        30.16S
MANTEO         CLEAR     65  56  72 E3        30.16S
CAPE HATTERAS  CLOUDY    70  58  65 NE5       30.13S
$$

NCZ078-087-090-091-093-098-101-260600-
SOUTHEASTERN NORTH CAROLINA

CITY           SKY/WX    TMP DP  RH WIND       PRES   REMARKS
LUMBERTON      CLOUDY    72  63  73 E7        30.12R
GOLDSBORO      MOCLDY    67  65  93 E6        30.13S
KINSTON        CLOUDY    66  61  84 NE5       30.15F
KENANSVILLE    MOCLDY    64  63  94 CALM      30.14S
NEW BERN       CLEAR     67  59  75 NE8       30.14F
CHERRY POINT   CLOUDY    71  60  68 NE8       30.13F
BEAUFORT       CLOUDY    71  61  70 NE9       30.11F
JACKSONVILLE   PTCLDY    68  61  78 N3        30.12S
WILMINGTON     CLEAR     68  65  90 N6        30.11S
$$




USA.gov is the U.S. government's official web portal to all federal, state and local government web resources and services.